Voltar ao catálogo

STARLINK-2536

AtivoComunicaçõesVLEO
NORAD 48310·PAYLOAD·🇺🇸 United States

Lançado Apr 29, 2021 de Cape Canaveral Space Force Station

Loading…

Próximas Passagens (próximas 24 horas)

TLE

AtualizadoSource: CelesTrak SupGP

Época: Sep 14, 2026, 21:45 UTC

1 48310C 21036AL  26257.90673611  .00034727  00000+0  11167-2 0  2570
2 48310  53.1566 290.8493 0001265  91.6290 148.2731 15.31685575    13

Acompanhe STARLINK-2536 em tempo real com AllMySat

Download on the App Store